Preview of NWS' New Version of Forecast
This preview is not operational and should not be used for support decisions.

Regional Weather Roundup (RWR)

Issued by National Weather Service (NWS)

                            
000
ASUS43 KLSX 231357
RWRMO 

WEATHER SUMMARY FOR MISSOURI
NATIONAL WEATHER SERVICE SPRINGFIELD MO
900 AM CDT THU MAY 23 2019

NOTE: "FAIR" INDICATES FEW OR NO CLOUDS BELOW 12,000 FEET WITH NO
       SIGNIFICANT WEATHER AND/OR OBSTRUCTIONS TO VISIBILITY.
       CURRENT SKY AND/OR WEATHER CONDITIONS ARE NOT AVAILABLE FOR
       CHILLICOTHE AND FARMINGTON.

MOZ001>031-035>038-043-044-053-054-231500-
...NORTHERN AND WESTERN MISSOURI...
  
CITY           SKY/WX    TMP DP  RH WIND       PRES   REMARKS
KANSAS CTY INT PTSUNNY   62  51  67 NE9       30.11R                  
LEE'S SUMMIT   CLOUDY    65  55  70 NE7       30.10R                  
ST JOSEPH      PTSUNNY   61  55  81 N5        30.12R                  
CHILLICOTHE      N/A     63  53  70 CALM      30.12R                  
     
$$
MOZ066>068-077>081-088>096-101>105-231500-
...SOUTHWEST MISSOURI...
  
CITY           SKY/WX    TMP DP  RH WIND       PRES   REMARKS
SPRINGFIELD    LGT RAIN  68  64  87 SW9G17    30.08S                  
JOPLIN         CLOUDY    67  66  97 E9        30.05R                  
BRANSON        PTSUNNY   77  72  83 S7        30.10R                  
               
$$
MOZ032>034-039>042-045>050-055>058-069>072-231500-
...CENTRAL MISSOURI...  
  
CITY           SKY/WX    TMP DP  RH WIND       PRES   REMARKS
COLUMBIA       NOT AVBL                                               
ROLLA          RAIN      68  64  87 W7        30.11R                  
SEDALIA        CLOUDY    61  61 100 NE5       30.09R                  
WARRENSBURG    CLOUDY    61  61 100 CALM      30.08F                  
               
$$
MOZ051-052-059>065-231500-
...EAST CENTRAL MISSOURI...
  
CITY           SKY/WX    TMP DP  RH WIND       PRES   REMARKS
ST LOUIS INTL  CLOUDY    72  68  87 NW9       30.05S                  
                   
$$
MOZ072>076-082>087-097>100-106>115-231500-
...SOUTH CENTRAL AND SOUTHEAST MISSOURI...
  
CITY           SKY/WX    TMP DP  RH WIND       PRES   REMARKS
CAPE GIRARDEAU FAIR      79  71  76 SW14G23   30.08F                  
POPLAR BLUFF   FAIR      78  73  84 SW12G23   30.09S                  
WEST PLAINS    CLOUDY    75  70  84 S8        30.12R                  
                                       
$$